| time (UTC) | temp F | wind direction | speed MPH | gust MPH | rain 1hr in | rain 24hr in | rain mn in | humidity % | barometer mb |
| 20260505041607 | 72 | 214 | 0.0 | 0.0 | 0.00 | 0.00 | 0.00 | 65 | 1004.2 |
| 20260505041104 | 72 | 311 | 0.0 | 0.0 | 0.00 | 0.00 | 0.00 | 65 | 1004.4 |
| 20260505040601 | 72 | 206 | 0.0 | 0.0 | 0.00 | 0.00 | 0.00 | 64 | 1004.2 |
| 20260505040058 | 73 | 211 | 0.0 | 1.0 | 0.00 | 0.00 | 0.00 | 64 | 1003.9 |
| 20260505035554 | 73 | 224 | 0.0 | 1.0 | 0.00 | 0.00 | 0.00 | 64 | 1003.7 |
| 20260505035051 | 73 | 210 | 0.0 | 3.0 | 0.00 | 0.00 | 0.00 | 64 | 1004.0 |
| 20260505034548 | 73 | 214 | 0.0 | 2.0 | 0.00 | 0.00 | 0.00 | 63 | 1004.0 |
| 20260505034044 | 73 | 170 | 1.0 | 1.0 | 0.00 | 0.00 | 0.00 | 62 | 1003.9 |
| 20260505033541 | 73 | 203 | 0.0 | 0.0 | 0.00 | 0.00 | 0.00 | 62 | 1004.1 |
| 20260505033040 | 73 | 198 | 0.0 | 2.0 | 0.00 | 0.00 | 0.00 | 61 | 1004.0 |
| 20260505032537 | 73 | 208 | 0.0 | 0.0 | 0.00 | 0.00 | 0.00 | 61 | 1003.9 |
| 20260505032033 | 73 | 245 | 0.0 | 2.0 | 0.00 | 0.00 | 0.00 | 60 | 1003.8 |
| 20260505031531 | 73 | 262 | 0.0 | 1.0 | 0.00 | 0.00 | 0.00 | 60 | 1003.8 |
| 20260505031027 | 73 | 192 | 1.0 | 1.0 | 0.00 | 0.00 | 0.00 | 60 | 1003.7 |
| 20260505030524 | 73 | 211 | 0.0 | 0.0 | 0.00 | 0.00 | 0.00 | 59 | 1003.5 |
| 20260505030020 | 72 | 198 | 0.0 | 1.0 | 0.00 | 0.00 | 0.00 | 59 | 1003.5 |
| 20260505025516 | 71 | 202 | 0.0 | 1.0 | 0.00 | 0.00 | 0.00 | 58 | 1003.5 |
| 20260505025016 | 71 | 212 | 0.0 | 0.0 | 0.00 | 0.00 | 0.00 | 58 | 1003.6 |
| 20260505024512 | 71 | 218 | 0.0 | 0.0 | 0.00 | 0.00 | 0.00 | 58 | 1003.3 |
| 20260505024009 | 71 | 231 | 0.0 | 0.0 | 0.00 | 0.00 | 0.00 | 58 | 1003.2 |
| 20260505023506 | 71 | 228 | 0.0 | 0.0 | 0.00 | 0.00 | 0.00 | 57 | 1003.2 |
| 20260505023003 | 72 | 227 | 0.0 | 0.0 | 0.00 | 0.00 | 0.00 | 57 | 1003.2 |
| 20260505022501 | 72 | 228 | 0.0 | 0.0 | 0.00 | 0.00 | 0.00 | 57 | 1003.3 |
| 20260505021958 | 72 | 231 | 0.0 | 0.0 | 0.00 | 0.00 | 0.00 | 56 | 1003.1 |
| 20260505021454 | 72 | 214 | 0.0 | 0.0 | 0.00 | 0.00 | 0.00 | 56 | 1002.9 |
| 20260505020950 | 72 | 219 | 0.0 | 0.0 | 0.00 | 0.00 | 0.00 | 56 | 1002.9 |
| 20260505020445 | 72 | 223 | 0.0 | 0.0 | 0.00 | 0.00 | 0.00 | 56 | 1002.8 |
| 20260505015942 | 73 | 223 | 0.0 | 0.0 | 0.00 | 0.00 | 0.00 | 55 | 1002.7 |
| 20260505015440 | 73 | 225 | 0.0 | 0.0 | 0.00 | 0.00 | 0.00 | 54 | 1002.8 |
| 20260505014937 | 73 | 224 | 0.0 | 0.0 | 0.00 | 0.00 | 0.00 | 55 | 1002.5 |
| 20260505014433 | 74 | 222 | 0.0 | 0.0 | 0.00 | 0.00 | 0.00 | 54 | 1002.4 |
| 20260505013931 | 74 | 218 | 0.0 | 0.0 | 0.00 | 0.00 | 0.00 | 54 | 1002.6 |
| 20260505013428 | 74 | 218 | 0.0 | 1.0 | 0.00 | 0.00 | 0.00 | 53 | 1002.4 |
| 20260505012925 | 75 | 193 | 0.0 | 1.0 | 0.00 | 0.00 | 0.00 | 53 | 1002.5 |
| 20260505012423 | 75 | 226 | 0.0 | 0.0 | 0.00 | 0.00 | 0.00 | 52 | 1002.4 |
| 20260505011919 | 75 | 210 | 0.0 | 0.0 | 0.00 | 0.00 | 0.00 | 52 | 1002.1 |
| 20260505011416 | 76 | 198 | 0.0 | 0.0 | 0.00 | 0.00 | 0.00 | 51 | 1002.4 |
| 20260505010913 | 76 | 217 | 0.0 | 0.0 | 0.00 | 0.00 | 0.00 | 50 | 1002.2 |
| 20260505010408 | 77 | 223 | 0.0 | 0.0 | 0.00 | 0.00 | 0.00 | 49 | 1002.0 |
| 20260505005904 | 77 | 220 | 0.0 | 0.0 | 0.00 | 0.00 | 0.00 | 48 | 1002.0 |
| 20260505005401 | 77 | 217 | 0.0 | 0.0 | 0.00 | 0.00 | 0.00 | 48 | 1002.0 |
| 20260505004859 | 78 | 220 | 0.0 | 0.0 | 0.00 | 0.00 | 0.00 | 47 | 1001.9 |
| 20260505004355 | 78 | 220 | 0.0 | 0.0 | 0.00 | 0.00 | 0.00 | 47 | 1001.9 |
| 20260505003852 | 79 | 218 | 0.0 | 0.0 | 0.00 | 0.00 | 0.00 | 47 | 1001.9 |
| 20260505003350 | 79 | 228 | 0.0 | 0.0 | 0.00 | 0.00 | 0.00 | 46 | 1001.9 |
| 20260505002845 | 79 | 214 | 0.0 | 0.0 | 0.00 | 0.00 | 0.00 | 45 | 1001.8 |
| 20260505002342 | 79 | 243 | 0.0 | 0.0 | 0.00 | 0.00 | 0.00 | 45 | 1001.7 |
| 20260505001841 | 79 | 194 | 0.0 | 0.0 | 0.00 | 0.00 | 0.00 | 45 | 1001.7 |
| 20260505001338 | 79 | 265 | 0.0 | 0.0 | 0.00 | 0.00 | 0.00 | 45 | 1001.8 |
| 20260505000835 | 79 | 234 | 0.0 | 0.0 | 0.00 | 0.00 | 0.00 | 45 | 1001.9 |
| 20260505000333 | 79 | 230 | 0.0 | 0.0 | 0.00 | 0.00 | 0.00 | 44 | 1002.0 |
| 20260504235829 | 80 | 244 | 0.0 | 0.0 | 0.00 | 0.00 | 0.00 | 44 | 1001.6 |
| 20260504235326 | 80 | 189 | 0.0 | 1.0 | 0.00 | 0.00 | 0.00 | 44 | 1001.9 |
| 20260504234823 | 80 | 216 | 0.0 | 1.0 | 0.00 | 0.00 | 0.00 | 43 | 1001.9 |
| 20260504234320 | 80 | 194 | 0.0 | 0.0 | 0.00 | 0.00 | 0.00 | 43 | 1001.9 |
| 20260504233816 | 80 | 195 | 0.0 | 0.0 | 0.00 | 0.00 | 0.00 | 43 | 1001.8 |
| 20260504233312 | 80 | 159 | 2.0 | 2.0 | 0.00 | 0.00 | 0.00 | 41 | 1002.0 |
| 20260504232809 | 80 | 187 | 0.0 | 1.0 | 0.00 | 0.00 | 0.00 | 41 | 1001.8 |
| 20260504232307 | 80 | 267 | 0.0 | 1.0 | 0.00 | 0.00 | 0.00 | 42 | 1002.0 |
| 20260504231803 | 81 | 215 | 1.0 | 1.0 | 0.00 | 0.00 | 0.00 | 41 | 1001.9 |
| 20260504231300 | 81 | 225 | 0.0 | 2.0 | 0.00 | 0.00 | 0.00 | 41 | 1001.8 |
| 20260504230756 | 81 | 191 | 0.0 | 2.0 | 0.00 | 0.00 | 0.00 | 41 | 1001.8 |
| 20260504230254 | 81 | 168 | 0.0 | 1.0 | 0.00 | 0.00 | 0.00 | 41 | 1001.8 |
| 20260504225753 | 82 | 193 | 0.0 | 1.0 | 0.00 | 0.00 | 0.00 | 40 | 1001.8 |
| 20260504225248 | 81 | 285 | 1.0 | 1.0 | 0.00 | 0.00 | 0.00 | 40 | 1001.9 |
| 20260504224746 | 81 | 229 | 0.0 | 0.0 | 0.00 | 0.00 | 0.00 | 40 | 1002.0 |
| 20260504224243 | 81 | 358 | 0.0 | 1.0 | 0.00 | 0.00 | 0.00 | 39 | 1002.0 |
| 20260504223739 | 81 | 188 | 1.0 | 2.0 | 0.00 | 0.00 | 0.00 | 40 | 1002.0 |
| 20260504223235 | 81 | 211 | 0.0 | 1.0 | 0.00 | 0.00 | 0.00 | 41 | 1001.7 |
| 20260504222732 | 80 | 216 | 0.0 | 1.0 | 0.00 | 0.00 | 0.00 | 41 | 1002.0 |
| 20260504222229 | 80 | 235 | 0.0 | 1.0 | 0.00 | 0.00 | 0.00 | 42 | 1001.9 |
| 20260504221726 | 80 | 180 | 1.0 | 3.0 | 0.00 | 0.00 | 0.00 | 42 | 1002.1 |
| 20260504221223 | 80 | 183 | 1.0 | 2.0 | 0.00 | 0.00 | 0.00 | 41 | 1002.0 |
| 20260504220720 | 80 | 251 | 0.0 | 2.0 | 0.00 | 0.00 | 0.00 | 41 | 1002.1 |
| 20260504220217 | 80 | 43 | 1.0 | 2.0 | 0.00 | 0.00 | 0.00 | 42 | 1002.1 |
| 20260504215714 | 80 | 289 | 1.0 | 2.0 | 0.00 | 0.00 | 0.00 | 43 | 1002.0 |
| 20260504215211 | 80 | 269 | 0.0 | 1.0 | 0.00 | 0.00 | 0.00 | 42 | 1002.3 |
| 20260504214707 | 81 | 158 | 0.0 | 1.0 | 0.00 | 0.00 | 0.00 | 43 | 1002.3 |
| 20260504214203 | 81 | 199 | 0.0 | 2.0 | 0.00 | 0.00 | 0.00 | 43 | 1002.1 |
| 20260504213700 | 81 | 251 | 0.0 | 1.0 | 0.00 | 0.00 | 0.00 | 43 | 1002.5 |
| 20260504213157 | 81 | 205 | 1.0 | 2.0 | 0.00 | 0.00 | 0.00 | 43 | 1002.1 |
| 20260504212653 | 81 | 282 | 1.0 | 2.0 | 0.00 | 0.00 | 0.00 | 42 | 1002.4 |
| 20260504212150 | 81 | 242 | 1.0 | 2.0 | 0.00 | 0.00 | 0.00 | 42 | 1002.4 |
| 20260504211647 | 82 | 244 | 2.0 | 3.0 | 0.00 | 0.00 | 0.00 | 41 | 1002.4 |
| 20260504211144 | 82 | 326 | 2.0 | 4.0 | 0.00 | 0.00 | 0.00 | 40 | 1002.2 |
| 20260504210642 | 83 | 5 | 2.0 | 3.0 | 0.00 | 0.00 | 0.00 | 40 | 1002.3 |
| 20260504210138 | 83 | 152 | 2.0 | 4.0 | 0.00 | 0.00 | 0.00 | 39 | 1002.3 |
| 20260504205635 | 84 | 236 | 1.0 | 2.0 | 0.00 | 0.00 | 0.00 | 39 | 1002.4 |
| 20260504205132 | 84 | 226 | 0.0 | 1.0 | 0.00 | 0.00 | 0.00 | 39 | 1002.3 |
| 20260504204631 | 84 | 192 | 2.0 | 3.0 | 0.00 | 0.00 | 0.00 | 38 | 1002.4 |
| 20260504204130 | 84 | 290 | 1.0 | 1.0 | 0.00 | 0.00 | 0.00 | 39 | 1002.5 |
| 20260504203628 | 85 | 213 | 1.0 | 2.0 | 0.00 | 0.00 | 0.00 | 39 | 1002.5 |
| 20260504203126 | 84 | 160 | 0.0 | 1.0 | 0.00 | 0.00 | 0.00 | 41 | 1002.6 |
| 20260504202625 | 85 | 36 | 1.0 | 3.0 | 0.00 | 0.00 | 0.00 | 40 | 1002.5 |
| 20260504202123 | 84 | 170 | 1.0 | 3.0 | 0.00 | 0.00 | 0.00 | 38 | 1002.5 |
| 20260504201619 | 84 | 268 | 1.0 | 3.0 | 0.00 | 0.00 | 0.00 | 39 | 1002.4 |
| 20260504201117 | 85 | 177 | 2.0 | 4.0 | 0.00 | 0.00 | 0.00 | 40 | 1002.6 |
| 20260504200614 | 84 | 198 | 0.0 | 2.0 | 0.00 | 0.00 | 0.00 | 40 | 1002.6 |
| 20260504200110 | 84 | 220 | 3.0 | 4.0 | 0.00 | 0.00 | 0.00 | 39 | 1002.7 |
| 20260504195607 | 84 | 201 | 1.0 | 2.0 | 0.00 | 0.00 | 0.00 | 39 | 1002.6 |
| 20260504195103 | 84 | 228 | 4.0 | 7.0 | 0.00 | 0.00 | 0.00 | 37 | 1002.7 |
| 20260504194600 | 84 | 295 | 2.0 | 3.0 | 0.00 | 0.00 | 0.00 | 38 | 1002.8 |
| 20260504194055 | 84 | 228 | 1.0 | 2.0 | 0.00 | 0.00 | 0.00 | 37 | 1002.7 |
| 20260504193552 | 84 | 223 | 2.0 | 3.0 | 0.00 | 0.00 | 0.00 | 39 | 1002.8 |
| 20260504193051 | 83 | 312 | 1.0 | 4.0 | 0.00 | 0.00 | 0.00 | 39 | 1002.7 |
| 20260504192549 | 84 | 197 | 0.0 | 2.0 | 0.00 | 0.00 | 0.00 | 39 | 1002.8 |
| 20260504192046 | 84 | 254 | 0.0 | 2.0 | 0.00 | 0.00 | 0.00 | 38 | 1002.9 |
| 20260504191544 | 83 | 214 | 1.0 | 2.0 | 0.00 | 0.00 | 0.00 | 40 | 1002.8 |
| 20260504191040 | 83 | 281 | 1.0 | 3.0 | 0.00 | 0.00 | 0.00 | 38 | 1002.9 |
| 20260504190537 | 83 | 237 | 1.0 | 3.0 | 0.00 | 0.00 | 0.00 | 38 | 1003.0 |
| 20260504190032 | 83 | 224 | 2.0 | 2.0 | 0.00 | 0.00 | 0.00 | 39 | 1003.0 |
| 20260504185530 | 82 | 160 | 3.0 | 4.0 | 0.00 | 0.00 | 0.00 | 39 | 1003.0 |
| 20260504185026 | 82 | 238 | 1.0 | 4.0 | 0.00 | 0.00 | 0.00 | 40 | 1003.3 |
| 20260504184521 | 82 | 2 | 0.0 | 3.0 | 0.00 | 0.00 | 0.00 | 40 | 1002.9 |
| 20260504184017 | 81 | 246 | 1.0 | 2.0 | 0.00 | 0.00 | 0.00 | 41 | 1002.9 |
| 20260504183515 | 81 | 197 | 1.0 | 4.0 | 0.00 | 0.00 | 0.00 | 39 | 1003.1 |
| 20260504183013 | 81 | 136 | 0.0 | 4.0 | 0.00 | 0.00 | 0.00 | 40 | 1003.1 |
| 20260504182509 | 81 | 186 | 3.0 | 4.0 | 0.00 | 0.00 | 0.00 | 39 | 1003.2 |
| 20260504182007 | 81 | 242 | 1.0 | 2.0 | 0.00 | 0.00 | 0.00 | 41 | 1003.2 |
| 20260504181503 | 80 | 262 | 1.0 | 2.0 | 0.00 | 0.00 | 0.00 | 41 | 1003.2 |
| 20260504181002 | 80 | 70 | 1.0 | 4.0 | 0.00 | 0.00 | 0.00 | 40 | 1003.5 |
| 20260504180501 | 80 | 286 | 1.0 | 3.0 | 0.00 | 0.00 | 0.00 | 41 | 1003.3 |
| 20260504175959 | 80 | 323 | 2.0 | 2.0 | 0.00 | 0.00 | 0.00 | 41 | 1003.5 |
| 20260504175455 | 80 | 280 | 4.0 | 7.0 | 0.00 | 0.00 | 0.00 | 42 | 1003.5 |
| 20260504174953 | 80 | 197 | 1.0 | 2.0 | 0.00 | 0.00 | 0.00 | 39 | 1003.5 |
| 20260504174450 | 80 | 170 | 0.0 | 1.0 | 0.00 | 0.00 | 0.00 | 41 | 1003.6 |
| 20260504173947 | 79 | 39 | 0.0 | 1.0 | 0.00 | 0.00 | 0.00 | 41 | 1003.5 |
| 20260504173443 | 79 | 259 | 1.0 | 2.0 | 0.00 | 0.00 | 0.00 | 41 | 1003.6 |
| 20260504172942 | 78 | 196 | 1.0 | 4.0 | 0.00 | 0.00 | 0.00 | 45 | 1003.6 |
| 20260504172437 | 78 | 195 | 1.0 | 1.0 | 0.00 | 0.00 | 0.00 | 46 | 1003.9 |
| 20260504171934 | 79 | 236 | 2.0 | 4.0 | 0.00 | 0.00 | 0.00 | 44 | 1003.9 |
| 20260504171431 | 78 | 141 | 1.0 | 2.0 | 0.00 | 0.00 | 0.00 | 44 | 1003.8 |
| 20260504170928 | 78 | 258 | 2.0 | 3.0 | 0.00 | 0.00 | 0.00 | 43 | 1004.0 |
| 20260504170424 | 78 | 253 | 0.0 | 1.0 | 0.00 | 0.00 | 0.00 | 43 | 1003.8 |
| 20260504160343 | 74 | 317 | 2.0 | 3.0 | 0.00 | 0.00 | 0.00 | 45 | 1003.9 |
| 20260504150808 | 71 | 275 | 1.0 | 4.0 | 0.00 | 0.00 | 0.00 | 49 | 1004.1 |
| 20260504150304 | 70 | 322 | 2.0 | 6.0 | 0.00 | 0.00 | 0.00 | 50 | 1004.2 |
| 20260504141235 | 67 | 254 | 1.0 | 2.0 | 0.00 | 0.00 | 0.00 | 53 | 1004.3 |
| 20260504140731 | 67 | 212 | 0.0 | 2.0 | 0.00 | 0.00 | 0.00 | 53 | 1004.5 |
| 20260504140227 | 67 | 39 | 1.0 | 4.0 | 0.00 | 0.00 | 0.00 | 53 | 1004.3 |
| 20260504130655 | 67 | 316 | 1.0 | 1.0 | 0.00 | 0.00 | 0.00 | 53 | 1004.0 |
| 20260504130151 | 66 | 356 | 0.0 | 3.0 | 0.00 | 0.00 | 0.00 | 52 | 1004.0 |
| 20260504120115 | 63 | 219 | 0.0 | 1.0 | 0.00 | 0.00 | 0.00 | 55 | 1004.3 |
| 20260504110543 | 64 | 207 | 0.0 | 0.0 | 0.00 | 0.00 | 0.00 | 53 | 1004.3 |
| 20260504100459 | 65 | 227 | 0.0 | 0.0 | 0.00 | 0.00 | 0.00 | 50 | 1005.0 |
| 20260504081852 | 65 | 253 | 0.0 | 1.0 | 0.00 | 0.00 | 0.00 | 50 | 1005.3 |
| 20260504081349 | 65 | 279 | 0.0 | 1.0 | 0.00 | 0.00 | 0.00 | 50 | 1005.3 |
| 20260504080845 | 65 | 181 | 0.0 | 1.0 | 0.00 | 0.00 | 0.00 | 50 | 1005.4 |
| 20260504080342 | 65 | 262 | 1.0 | 2.0 | 0.00 | 0.00 | 0.00 | 51 | 1005.6 |
| 20260504070310 | 67 | 237 | 0.0 | 0.0 | 0.00 | 0.00 | 0.00 | 46 | 1006.4 |
| 20260504060230 | 68 | 200 | 0.0 | 0.0 | 0.00 | 0.00 | 0.00 | 45 | 1007.2 |
| 20260504050658 | 67 | 212 | 0.0 | 2.0 | 0.00 | 0.00 | 0.00 | 44 | 1008.1 |
| 20260504050155 | 65 | 272 | 0.0 | 1.0 | 0.00 | 0.00 | 0.00 | 53 | 1008.2 |
| 20260504045652 | 65 | 221 | 0.0 | 0.0 | 0.00 | 0.00 | 0.00 | 55 | 1008.1 |
| 20260504045152 | 65 | 226 | 0.0 | 0.0 | 0.00 | 0.00 | 0.00 | 54 | 1008.1 |
| 20260504044650 | 65 | 213 | 0.0 | 0.0 | 0.00 | 0.00 | 0.00 | 54 | 1007.9 |
| 20260504044146 | 66 | 220 | 0.0 | 0.0 | 0.00 | 0.00 | 0.00 | 54 | 1008.1 |
| 20260504043643 | 66 | 232 | 0.0 | 0.0 | 0.00 | 0.00 | 0.00 | 53 | 1008.1 |
| 20260504043141 | 66 | 211 | 0.0 | 0.0 | 0.00 | 0.00 | 0.00 | 53 | 1008.2 |
| 20260504042638 | 66 | 235 | 0.0 | 0.0 | 0.00 | 0.00 | 0.00 | 53 | 1008.0 |